WGS F7 (USA 263)

Last updated on Oct. 1, 2020, 5:42 a.m. UTC

1 40746U 15036A   20274.82360338  .00000004  00000-0  00000+0 0  9997
2 40746   0.0032 192.4346 0000077 309.0032 340.1121  1.00271451 18965
UTC
Height (km)
Latitude
Longitude
Inclination
Orbital Period
UTC large
Height (km)
Speed (km/s)
/
Latitude / Longitude
Inclination (degrees)
Orbital Period (minutes)
Azimuth
Elevation
Range (km)
Doppler Factor
iOS Compass Heading
iOS Angle

Next 30 passes for location: Hong Kong

Rise time Rise Azimuth (degrees) Set time Set Azimuth (degrees) Duration Max altitude (degrees)

No matching passes for this satellites